{"data":{"norad_id":65692,"epoch":"2026-05-24T23:24:41.225760Z","epoch_age_seconds":76858,"freshness":"FRESH","line1":"1 65692U 25212S   26144.97547715  .00011286  00000+0  39249-3 0  9999","line2":"2 65692  53.1604 351.3045 0000995  75.4679 284.6432 15.30206870 38913","mean_motion":15.3020687,"eccentricity":9.95e-5,"inclination_deg":53.1604,"raan_deg":351.3045,"arg_perigee_deg":75.4679,"mean_anomaly_deg":284.6432,"bstar":0.00039249,"rev_number":3891,"period_min":94.104923212114,"perigee_km":474.51265042448,"apogee_km":475.87646340431,"semimajor_km":6853.3315569144,"source":"CELESTRAK","updated_at":"2026-05-25T13:38:20.897072Z"}}